TimeEDT,TemperatureF,Dew PointF,Humidity,Sea Level PressureIn,VisibilityMPH,Wind Direction,Wind SpeedMPH,Gust SpeedMPH,PrecipitationIn,Events,Conditions,WindDirDegrees,DateUTC
12:20 AM,78.8,75.2,89,29.69,7.0,South,3.5,-,N/A,,Overcast,190,2013-06-29 04:20:00
12:56 AM,79.0,75.9,90,29.69,6.0,South,8.1,-,N/A,,Overcast,170,2013-06-29 04:56:00
1:56 AM,79.0,75.9,90,29.68,8.0,SSW,8.1,-,N/A,,Overcast,200,2013-06-29 05:56:00
2:56 AM,79.0,75.0,88,29.66,9.0,SSW,11.5,17.3,N/A,,Mostly Cloudy,200,2013-06-29 06:56:00
3:10 AM,78.8,75.2,89,29.64,9.0,SSW,8.1,-,N/A,,Scattered Clouds,210,2013-06-29 07:10:00
3:56 AM,78.1,75.0,90,29.66,9.0,SSW,12.7,17.3,N/A,,Clear,200,2013-06-29 07:56:00
4:24 AM,78.8,75.2,89,29.66,9.0,SSW,12.7,23.0,N/A,,Mostly Cloudy,210,2013-06-29 08:24:00
4:52 AM,78.8,75.2,89,29.67,9.0,SW,9.2,16.1,N/A,,Overcast,220,2013-06-29 08:52:00
4:56 AM,78.1,75.0,90,29.68,9.0,SW,8.1,-,N/A,,Overcast,220,2013-06-29 08:56:00
5:40 AM,78.8,73.4,83,29.68,10.0,SSW,11.5,-,N/A,,Scattered Clouds,210,2013-06-29 09:40:00
5:56 AM,78.1,73.9,87,29.69,10.0,SSW,8.1,18.4,N/A,,Partly Cloudy,200,2013-06-29 09:56:00
6:56 AM,78.1,73.9,87,29.70,8.0,SSW,9.2,-,N/A,,Partly Cloudy,210,2013-06-29 10:56:00
7:28 AM,78.8,73.4,83,29.69,9.0,SSW,9.2,-,N/A,,Partly Cloudy,210,2013-06-29 11:28:00
7:56 AM,80.1,73.0,79,29.70,10.0,SW,11.5,17.3,N/A,,Clear,230,2013-06-29 11:56:00
8:56 AM,81.0,73.0,77,29.71,10.0,SW,10.4,18.4,N/A,,Clear,230,2013-06-29 12:56:00
9:56 AM,81.0,73.9,79,29.72,10.0,SW,8.1,-,N/A,,Partly Cloudy,230,2013-06-29 13:56:00
10:56 AM,81.0,71.1,72,29.71,10.0,WSW,10.4,-,0.00,Rain,Light Rain,240,2013-06-29 14:56:00
11:56 AM,78.1,73.0,84,29.73,10.0,SSW,6.9,-,0.01,,Scattered Clouds,210,2013-06-29 15:56:00
12:56 PM,80.1,73.0,79,29.73,10.0,SW,6.9,-,N/A,,Partly Cloudy,230,2013-06-29 16:56:00
2:04 PM,80.6,73.4,79,29.72,10.0,South,10.4,20.7,N/A,,Scattered Clouds,180,2013-06-29 18:04:00
2:56 PM,81.0,72.0,74,29.73,10.0,South,15.0,23.0,N/A,,Clear,190,2013-06-29 18:56:00
3:21 PM,82.4,73.4,74,29.72,10.0,SSW,17.3,26.5,N/A,,Mostly Cloudy,200,2013-06-29 19:21:00
3:56 PM,82.0,73.0,74,29.73,10.0,SSW,13.8,27.6,N/A,,Mostly Cloudy,210,2013-06-29 19:56:00
4:11 PM,82.4,73.4,74,29.72,10.0,South,17.3,29.9,N/A,,Scattered Clouds,190,2013-06-29 20:11:00
4:56 PM,81.0,73.9,79,29.73,10.0,South,17.3,24.2,N/A,,Overcast,190,2013-06-29 20:56:00
5:53 PM,78.8,73.4,83,29.72,9.0,SSW,12.7,21.9,N/A,,Partly Cloudy,200,2013-06-29 21:53:00
5:56 PM,79.0,73.9,84,29.73,9.0,South,13.8,24.2,N/A,,Partly Cloudy,190,2013-06-29 21:56:00
6:56 PM,77.0,75.0,94,29.74,6.0,South,10.4,-,0.01,Rain,Light Rain,190,2013-06-29 22:56:00
7:47 PM,75.2,73.4,94,29.74,7.0,South,10.4,-,0.02,,Overcast,190,2013-06-29 23:47:00
7:56 PM,75.9,73.9,94,29.75,6.0,South,13.8,18.4,0.02,Rain,Light Rain,190,2013-06-29 23:56:00
8:08 PM,75.2,73.4,94,29.75,7.0,SSW,10.4,19.6,0.00,,Mostly Cloudy,200,2013-06-30 00:08:00
8:17 PM,75.2,73.4,94,29.75,7.0,SSW,8.1,17.3,0.00,Rain,Light Rain,210,2013-06-30 00:17:00
8:26 PM,75.2,73.4,94,29.76,7.0,SSW,6.9,-,0.01,Rain,Light Rain,200,2013-06-30 00:26:00
8:56 PM,75.9,73.9,94,29.78,6.0,SSW,9.2,-,0.03,Rain,Light Rain,200,2013-06-30 00:56:00
9:10 PM,75.2,73.4,94,29.77,6.0,South,8.1,-,0.01,Rain,Light Rain,190,2013-06-30 01:10:00
9:21 PM,75.2,73.4,94,29.78,6.0,South,9.2,-,0.02,Rain,Light Rain,190,2013-06-30 01:21:00
9:56 PM,75.0,73.0,94,29.78,7.0,South,8.1,-,0.07,Rain,Light Rain,180,2013-06-30 01:56:00
10:27 PM,75.2,73.4,94,29.79,8.0,South,8.1,-,0.01,Rain,Light Rain,190,2013-06-30 02:27:00
10:56 PM,75.0,73.0,94,29.81,9.0,South,5.8,-,0.01,Rain,Light Rain,190,2013-06-30 02:56:00
11:38 PM,75.2,73.4,94,29.81,9.0,South,4.6,-,0.01,Rain,Light Rain,180,2013-06-30 03:38:00
11:56 PM,75.0,73.9,96,29.82,8.0,South,9.2,-,0.01,Rain,Light Rain,190,2013-06-30 03:56:00